Torna al catalogo

COSMOS 1039

AttivoNavigazioneLEO
NORAD 11048·PAYLOAD·🇷🇺 Russia

Lanciato Oct 4, 1978 da Plesetsk Cosmodrome

Loading…

Prossimi Passaggi (prossime 24 ore)

TLE

AggiornatoSource: Space-Track

Epoca: Sep 14, 2026, 06:48 UTC

1 11048U 78091F   26257.28341840 -.00000017  00000-0 -16502-4 0  9999
2 11048  74.0391  14.8808 0045752  73.7167 310.6056 12.38030274688567

Traccia COSMOS 1039 in tempo reale con AllMySat

Download on the App Store